Location: 3 Angels Observatory
(30.5437°N, 88.5068°W)
Time: 15:50:48
(UTC-06:00)

Amateur Radio Satellites - All Passes

Search period start: 25 November 2014 15:20
Search period end: 26 November 2014 15:20
Location: 3 Angels Observatory, 30.5437°N, 88.5068°W

Satellite Date Start Highest point End Downlink Frequencies (MHz)
Time Altitude Azimuth
VERMONT LUNAR 25 Nov 15:26:18 15:29:15 23° 345° (NNW) 15:32:14 437.305
Gurwin Techsat 1B 25 Nov 15:27:17 15:28:47 11° 267° (W) 15:30:18 435.225
RS-15 25 Nov 15:45:37 15:56:41 87° 115° (ESE) 16:07:38 29.354- 29.394
O/OREOS (USA 219) 25 Nov 15:59:18 16:03:47 77° 72° (ENE) 16:08:15 437.305
JAS-2 25 Nov 16:25:22 16:32:47 80° 75° (ENE) 16:40:41 435.910
CUTE-I 25 Nov 16:32:37 16:36:33 21° 68° (ENE) 16:40:28 437.470
PHONESAT 2.4 25 Nov 16:52:26 16:55:00 18° 356° (N) 16:57:34 2401.200-2431.200
MOZHAYETS 4 25 Nov 16:57:19 17:02:00 82° 283° (WNW) 17:06:38
VERMONT LUNAR 25 Nov 17:06:08 17:08:33 17° 3° (N) 17:10:58 437.305
AO-7 25 Nov 17:13:29 17:18:08 16° 265° (W) 17:22:51 29.400- 29.500
Cubesat XI-IV 25 Nov 17:29:18 17:34:40 82° 76° (ENE) 17:40:03 437.490
RS-15 25 Nov 18:02:20 18:10:25 23° 317° (NW) 18:18:34 29.354- 29.394
CUTE-I 25 Nov 18:11:21 18:16:17 38° 261° (W) 18:21:15 437.470
JAS-2 25 Nov 18:14:12 18:18:25 16° 270° (W) 18:22:46 435.910
PCSat 25 Nov 18:19:41 18:24:12 28° 107° (ESE) 18:28:44 145.827
PRISM 25 Nov 18:19:48 18:23:54 51° 285° (WNW) 18:27:58 437.425
PHONESAT 2.4 25 Nov 18:31:36 18:34:37 23° 14° (NNE) 18:37:38 2401.200-2431.200
CUBESAT XI-V 25 Nov 18:37:26 18:42:06 80° 102° (ESE) 18:46:43 437.345
VERMONT LUNAR 25 Nov 18:44:29 18:47:44 30° 19° (NNE) 18:50:59 437.305
GONETS M04 25 Nov 18:53:50 19:02:20 50° 80° (E) 19:10:43
STRAND 1 25 Nov 18:57:47 19:02:52 71° 285° (WNW) 19:07:54 437.568
AIST 1 25 Nov 19:15:07 19:19:27 66° 94° (E) 19:23:49
CANX-2 25 Nov 19:23:35 19:26:45 21° 71° (ENE) 19:29:55 2200.000
BEESAT 3 25 Nov 19:26:35 19:30:36 69° 115° (ESE) 19:34:43 437.485
COMPASS 1 25 Nov 19:29:28 19:31:59 16° 70° (ENE) 19:34:30 437.405
GOMX 1 25 Nov 19:37:17 19:41:00 22° 72° (ENE) 19:44:32 467.674
BEESAT 2 25 Nov 19:41:40 19:45:44 86° 297° (WNW) 19:49:54 435.950
HO-68 25 Nov 19:56:57 20:04:05 73° 73° (ENE) 20:11:15 435.675
CUTE 1.7 & AOD 2 25 Nov 19:57:15 20:01:19 51° 75° (ENE) 20:05:25 437.475
BRITE-PL 25 Nov 20:02:37 20:07:45 63° 76° (ENE) 20:12:29 437.365/2234.400
PCSat 25 Nov 20:02:45 20:07:27 30° 301° (WNW) 20:12:12 145.827
PHONESAT 2.4 25 Nov 20:10:03 20:13:46 83° 29° (NNE) 20:17:28 2401.200-2431.200
AIST 2 25 Nov 20:14:27 20:18:38 79° 297° (WNW) 20:22:54 435.215
UKube-1 25 Nov 20:21:57 20:25:38 27° 72° (ENE) 20:29:19 .
VERMONT LUNAR 25 Nov 20:22:48 20:26:19 50° 214° (SSW) 20:29:49 437.305
FUNcube-1 25 Nov 20:26:27 20:28:17 13° 69° (ENE) 20:30:06 145.935
SEEDS 25 Nov 20:30:38 20:34:47 68° 259° (W) 20:38:57 437.485
Oscar 11 25 Nov 20:33:06 20:37:07 41° 74° (ENE) 20:41:10 145.826/435.025
DOVE 4 25 Nov 20:33:30 20:38:14 72° 77° (ENE) 20:42:41 437.250
AAUSAT CUBESAT 2 25 Nov 20:48:12 20:52:16 55° 260° (W) 20:56:21 437.432
CUBEBUG 2 25 Nov 20:48:39 20:52:34 35° 74° (ENE) 20:56:24 437.445
UWE-3 25 Nov 20:49:42 20:53:27 30° 73° (ENE) 20:57:08 435.000/436.395/437.385
GONETS M04 25 Nov 20:51:33 20:58:36 28° 275° (W) 21:05:38
DELFI C3 25 Nov 20:54:58 20:58:59 65° 77° (ENE) 21:03:01 145.870
DX 1 25 Nov 20:56:24 21:00:46 77° 76° (ENE) 21:05:10 434.975-435.025
CANX-2 25 Nov 20:59:12 21:02:32 23° 264° (W) 21:05:52 2200.000
50 SAT 25 Nov 21:02:50 21:05:22 16° 70° (ENE) 21:07:54 437.505
COMPASS 1 25 Nov 21:03:46 21:07:25 30° 262° (W) 21:11:06 437.405
HUMSAT D 25 Nov 21:11:03 21:14:31 26° 73° (ENE) 21:17:57 437.325/437.525
CINEMA 3 25 Nov 21:11:52 21:16:20 67° 259° (W) 21:20:38 145.822/145.860
GOMX 1 25 Nov 21:14:44 21:18:57 28° 262° (W) 21:22:56 467.674
ESTCUBE 1 25 Nov 21:24:35 21:27:09 15° 68° (ENE) 21:29:43 437.505/2401.250
ZACube-1 25 Nov 21:24:52 21:29:06 73° 77° (ENE) 21:33:17 437.345
VELOX 1 25 Nov 21:25:06 21:29:21 44° 74° (ENE) 21:33:36 145.980
POLYITAN 1 25 Nov 21:39:15 21:40:08 11° 94° (E) 21:41:00 437.675
QB50P2 25 Nov 21:40:56 21:42:17 11° 94° (E) 21:43:38 145.880/145.840
BRITE-PL 25 Nov 21:45:45 21:46:22 10° 266° (W) 21:46:59 437.365/2234.400
DUCHIFAT 1 25 Nov 21:46:30 21:48:33 13° 94° (E) 21:50:36 145.980
HO-68 25 Nov 21:48:15 21:52:14 16° 266° (W) 21:56:14 435.675
PHONESAT 2.4 25 Nov 21:50:14 21:52:12 14° 221° (SW) 21:54:11 2401.200-2431.200
AISAT 25 Nov 21:50:56 21:55:25 85° 257° (WSW) 21:59:55 437.250
UKube-1 25 Nov 21:58:39 22:01:44 19° 264° (W) 22:04:50 .
FUNcube-1 25 Nov 22:00:19 22:04:17 38° 261° (W) 22:08:12 145.935
NANOSAT C BR1 25 Nov 22:04:41 22:08:04 23° 97° (E) 22:11:26 145.865
CUBEBUG 1 25 Nov 22:05:05 22:09:16 42° 74° (ENE) 22:13:28 437.445
JUGNU 25 Nov 22:07:27 22:11:10 17° 165° (SSE) 22:14:54 437.505
TIGRISAT 25 Nov 22:09:44 22:13:59 43° 100° (E) 22:18:19 435.000
Oscar 11 25 Nov 22:11:50 22:13:25 12° 266° (W) 22:15:00 145.826/435.025
QB50P1 25 Nov 22:14:14 22:17:59 31° 98° (E) 22:21:43 145.935-145.965
UNISAT 6 25 Nov 22:23:06 22:27:33 66° 101° (E) 22:32:06 437.425
BUGSAT 1 25 Nov 22:26:10 22:29:53 34° 99° (E) 22:33:33 437.445
CUBEBUG 2 25 Nov 22:27:09 22:29:19 14° 265° (W) 22:31:28 437.445
UWE-3 25 Nov 22:27:25 22:29:59 16° 265° (W) 22:32:32 435.000/436.395/437.385
ISS 25 Nov 22:28:31 22:31:48 86° 317° (NW) 22:35:05 145.825
50 SAT 25 Nov 22:37:00 22:40:26 27° 262° (W) 22:43:52 437.505
POPSAT HIP 1 25 Nov 22:38:38 22:42:49 66° 101° (E) 22:47:00 437.405
RS-15 25 Nov 22:44:03 22:49:42 15° 34° (NNE) 22:55:26 29.354- 29.394
HUMSAT D 25 Nov 22:47:30 22:50:16 17° 264° (W) 22:53:02 437.325/437.525
ANTELSAT 25 Nov 22:51:54 22:56:17 55° 285° (WNW) 23:00:45 437.575/2403.000
ESTCUBE 1 25 Nov 22:59:24 23:03:38 39° 261° (W) 23:07:55 437.505/2401.250
VELOX 1 25 Nov 23:04:20 23:06:05 12° 266° (W) 23:07:49 145.980
POLYITAN 1 25 Nov 23:12:13 23:16:14 44° 286° (WNW) 23:20:15 437.675
QB50P2 25 Nov 23:14:21 23:18:20 41° 286° (WNW) 23:22:18 145.880/145.840
TISAT 1 25 Nov 23:20:36 23:24:52 80° 77° (ENE) 23:29:09 437.305
DUCHIFAT 1 25 Nov 23:20:40 23:24:29 35° 287° (WNW) 23:28:19 145.980
AUBIESAT-1 25 Nov 23:23:04 23:25:36 16° 63° (ENE) 23:28:16 437.475
M-CUBED/EXP-1 PRIME 25 Nov 23:27:40 23:30:38 20° 64° (ENE) 23:33:47 437.505
CUSAT 1 25 Nov 23:28:13 23:33:12 52° 83° (E) 23:39:48 437.405
SPROUT 25 Nov 23:29:47 23:34:06 88° 78° (ENE) 23:38:26 437.525
NANOSAT C BR1 25 Nov 23:40:39 23:43:47 21° 289° (WNW) 23:46:54 145.865
CUBEBUG 1 25 Nov 23:43:53 23:45:46 12° 266° (W) 23:47:39 437.445
TIGRISAT 25 Nov 23:48:15 23:50:21 13° 291° (WNW) 23:52:29 435.000
QB50P1 25 Nov 23:51:03 23:53:35 16° 291° (WNW) 23:56:07 145.935-145.965
DANDE 25 Nov 23:53:07 23:58:04 76° 83° (E) 00:04:47 436.750
JUGNU 25 Nov 23:54:45 23:59:39 27° 174° (S) 00:04:35 437.505
ITUPSAT 1 26 Nov 00:02:49 00:06:57 30° 71° (ENE) 00:11:06 437.325
BUGSAT 1 26 Nov 00:03:07 00:05:02 13° 291° (WNW) 00:06:56 437.445
MaSat-1 26 Nov 00:04:54 00:05:35 11° 64° (ENE) 00:06:18 437.345
SRMSAT 26 Nov 00:05:30 00:09:51 21° 167° (SSE) 00:14:11 437.500
SWISSCUBE 26 Nov 00:13:23 00:17:54 43° 73° (ENE) 00:22:27 437.505
Oscar 19 26 Nov 00:41:21 00:45:47 28° 97° (E) 00:50:12 437.125/150
BEESAT 26 Nov 00:44:11 00:48:58 90° 253° (WSW) 00:53:47 436.000
RS-15 26 Nov 00:53:50 01:04:59 60° 59° (ENE) 01:16:36 29.354- 29.394
AUBIESAT-1 26 Nov 00:56:50 01:00:16 30° 259° (W) 01:04:01 437.475
M-CUBED/EXP-1 PRIME 26 Nov 01:02:23 01:05:31 23° 261° (W) 01:08:53 437.505
CUSAT 1 26 Nov 01:12:58 01:16:17 16° 266° (W) 01:20:07 437.405
KKS-1 26 Nov 01:13:20 01:17:19 33° 73° (ENE) 01:21:17 437.445
ITAMSAT 1 26 Nov 01:33:59 01:38:41 35° 99° (E) 01:43:21 435.822/435.867
ITUPSAT 1 26 Nov 01:41:08 01:44:47 22° 264° (W) 01:48:27 437.325
JUGNU 26 Nov 01:43:12 01:48:12 28° 184° (S) 01:53:14 437.505
SWISSCUBE 26 Nov 01:53:20 01:55:53 14° 266° (W) 01:58:28 437.505
SRMSAT 26 Nov 01:53:26 01:58:32 29° 177° (S) 02:03:37 437.500
YUBILEINY 26 Nov 01:57:03 02:05:40 62° 91° (E) 02:14:16 435.215
Gurwin Techsat 1B 26 Nov 02:05:27 02:10:27 41° 99° (E) 02:15:25 435.225
STARS 26 Nov 02:08:47 02:13:12 79° 258° (WSW) 02:17:37 437.465
Oscar 19 26 Nov 02:20:44 02:24:57 26° 290° (WNW) 02:29:10 437.125/150
HORYU 2 26 Nov 02:27:21 02:31:07 26° 97° (E) 02:34:53 437.375
KKS-1 26 Nov 02:51:10 02:53:58 16° 265° (W) 02:56:46 437.445
RS-15 26 Nov 03:07:08 03:16:43 33° 255° (WSW) 03:26:42 29.354- 29.394
SO-50 26 Nov 03:13:55 03:18:21 71° 298° (WNW) 03:22:56 436.795
ITAMSAT 1 26 Nov 03:14:03 03:17:53 21° 292° (WNW) 03:21:42 435.822/435.867
AO-7 26 Nov 03:24:56 03:32:36 39° 100° (E) 03:40:11 29.400- 29.500
JUGNU 26 Nov 03:32:34 03:36:43 20° 194° (SSW) 03:40:53 437.505
SRMSAT 26 Nov 03:42:19 03:47:15 27° 187° (S) 03:52:11 437.500
JAS-2 26 Nov 03:45:42 03:48:45 13° 89° (E) 03:51:38 435.910
Gurwin Techsat 1B 26 Nov 03:46:24 03:50:03 19° 292° (WNW) 03:53:41 435.225
MOZHAYETS 4 26 Nov 03:53:49 03:58:12 47° 75° (ENE) 04:02:38
YUBILEINY 26 Nov 03:56:20 04:02:53 23° 287° (WNW) 04:09:27 435.215
HORYU 2 26 Nov 04:04:13 04:07:36 21° 290° (WNW) 04:10:59 437.375
BEESAT 2 26 Nov 04:09:13 04:10:55 12° 51° (NE) 04:12:36 435.950
O/OREOS (USA 219) 26 Nov 04:28:19 04:31:16 17° 100° (E) 04:34:12 437.305
AIST 2 26 Nov 04:43:20 04:45:39 14° 52° (NE) 04:47:57 435.215
PCSat 26 Nov 04:55:26 05:00:50 66° 64° (ENE) 05:06:12 145.827
CUTE-I 26 Nov 04:56:42 04:58:49 12° 93° (E) 05:00:56 437.470
PRISM 26 Nov 05:04:59 05:09:03 53° 75° (ENE) 05:13:10 437.425
AO-7 26 Nov 05:17:40 05:25:12 39° 295° (WNW) 05:32:44 29.400- 29.500
JAS-2 26 Nov 05:27:41 05:34:32 70° 286° (WNW) 05:40:31 435.910
BEESAT 3 26 Nov 05:29:48 05:33:58 70° 245° (WSW) 05:38:03 437.485
SRMSAT 26 Nov 05:32:18 05:35:53 16° 196° (SSW) 05:39:28 437.500
MOZHAYETS 4 26 Nov 05:34:00 05:35:37 12° 267° (W) 05:37:14
CUBESAT XI-V 26 Nov 05:35:24 05:39:48 40° 74° (ENE) 05:44:12 437.345
BEESAT 2 26 Nov 05:45:25 05:49:28 50° 246° (WSW) 05:53:28 435.950
Cubesat XI-IV 26 Nov 05:52:35 05:57:47 53° 101° (E) 06:02:56 437.490
O/OREOS (USA 219) 26 Nov 06:06:24 06:10:22 30° 293° (WNW) 06:14:20 437.305
STRAND 1 26 Nov 06:07:52 06:13:01 88° 257° (WSW) 06:18:11 437.568
AIST 2 26 Nov 06:20:25 06:24:29 43° 247° (WSW) 06:28:28 435.215
CUTE-I 26 Nov 06:33:57 06:39:10 59° 286° (WNW) 06:44:21 437.470
ISS 26 Nov 06:37:47 06:41:05 89° 232° (SW) 06:44:23 145.825
PCSat 26 Nov 06:41:53 06:43:35 11° 257° (WSW) 06:45:17 145.827
AIST 1 26 Nov 07:05:56 07:10:09 49° 267° (W) 07:14:19
CUBESAT XI-V 26 Nov 07:14:40 07:17:20 15° 266° (W) 07:20:00 437.345
HO-68 26 Nov 07:32:54 07:37:26 18° 95° (E) 07:41:57 435.675
Cubesat XI-IV 26 Nov 07:34:26 07:37:21 15° 294° (WNW) 07:40:17 437.490
GONETS M04 26 Nov 07:47:06 07:55:47 69° 92° (E) 08:04:32
CUTE 1.7 & AOD 2 26 Nov 07:49:57 07:52:15 14° 94° (E) 07:54:34 437.475
BRITE-PL 26 Nov 08:13:44 08:17:15 26° 98° (E) 08:20:51 437.365/2234.400
SEEDS 26 Nov 08:21:24 08:25:11 30° 98° (E) 08:28:57 437.485
Oscar 11 26 Nov 08:28:14 08:29:53 12° 94° (E) 08:31:32 145.826/435.025
AAUSAT CUBESAT 2 26 Nov 08:37:40 08:41:33 35° 98° (E) 08:45:25 437.432
DOVE 4 26 Nov 08:38:44 08:42:20 27° 98° (E) 08:46:04 437.250
DELFI C3 26 Nov 08:42:58 08:45:20 15° 95° (E) 08:47:42 145.870
CUBEBUG 2 26 Nov 08:47:29 08:48:53 11° 94° (E) 08:50:18 437.445
CANX-2 26 Nov 08:49:21 08:53:40 87° 282° (WNW) 08:57:58 2200.000
DX 1 26 Nov 08:51:31 08:54:45 20° 97° (E) 08:57:59 434.975-435.025
COMPASS 1 26 Nov 08:52:52 08:57:05 65° 101° (E) 09:01:18 437.405
QB50P1 26 Nov 09:03:58 09:05:45 12° 68° (ENE) 09:07:32 145.935-145.965
TIGRISAT 26 Nov 09:04:35 09:07:35 19° 70° (ENE) 09:10:35 435.000
CINEMA 3 26 Nov 09:12:26 09:16:29 41° 99° (E) 09:20:40 145.822/145.860
BUGSAT 1 26 Nov 09:12:55 09:14:55 13° 69° (ENE) 09:16:54 437.445
UNISAT 6 26 Nov 09:17:41 09:21:19 28° 72° (ENE) 09:24:57 437.425
HO-68 26 Nov 09:18:25 09:25:30 65° 288° (WNW) 09:32:32 435.675
ZACube-1 26 Nov 09:20:00 09:23:17 21° 97° (E) 09:26:37 437.345
GOMX 1 26 Nov 09:21:31 09:25:38 59° 284° (WNW) 09:29:53 467.674
VELOX 1 26 Nov 09:23:29 09:25:38 13° 94° (E) 09:27:46 145.980
CUTE 1.7 & AOD 2 26 Nov 09:24:20 09:28:14 35° 286° (WNW) 09:32:07 437.475
POPSAT HIP 1 26 Nov 09:26:59 09:30:25 24° 72° (ENE) 09:33:51 437.405
ANTELSAT 26 Nov 09:45:48 09:50:02 65° 76° (ENE) 09:54:16 437.575/2403.000
GONETS M04 26 Nov 09:47:10 09:53:12 20° 289° (WNW) 09:59:18
AISAT 26 Nov 09:48:27 09:52:16 28° 98° (E) 09:56:03 437.250
UKube-1 26 Nov 09:50:49 09:55:08 71° 284° (WNW) 09:59:25 .
BRITE-PL 26 Nov 09:52:52 09:55:35 17° 289° (WNW) 09:58:21 437.365/2234.400
FUNcube-1 26 Nov 09:54:10 09:58:23 58° 101° (E) 10:02:40 145.935
SEEDS 26 Nov 09:58:01 10:00:44 17° 290° (WNW) 10:03:27 437.485
POLYITAN 1 26 Nov 09:59:50 10:04:04 65° 76° (ENE) 10:08:17 437.675
QB50P2 26 Nov 10:01:42 10:05:56 69° 76° (ENE) 10:10:11 145.880/145.840
CUBEBUG 1 26 Nov 10:02:03 10:03:47 12° 94° (E) 10:05:31 437.445
Oscar 11 26 Nov 10:02:05 10:06:11 42° 286° (WNW) 10:10:17 145.826/435.025
DUCHIFAT 1 26 Nov 10:07:31 10:11:46 80° 77° (ENE) 10:16:02 145.980
AAUSAT CUBESAT 2 26 Nov 10:14:36 10:16:53 14° 291° (WNW) 10:19:10 437.432
DELFI C3 26 Nov 10:17:00 10:20:39 31° 287° (WNW) 10:24:17 145.870
DOVE 4 26 Nov 10:17:05 10:19:55 18° 289° (WNW) 10:22:49 437.250
UWE-3 26 Nov 10:21:08 10:25:17 51° 284° (WNW) 10:29:32 435.000/436.395/437.385
CUBEBUG 2 26 Nov 10:21:39 10:25:42 43° 285° (WNW) 10:29:51 437.445
50 SAT 26 Nov 10:22:53 10:26:55 62° 101° (E) 10:30:58 437.505
NANOSAT C BR1 26 Nov 10:27:05 10:31:16 56° 259° (W) 10:35:27 145.865
DX 1 26 Nov 10:27:22 10:30:54 25° 289° (WNW) 10:34:25 434.975-435.025
HUMSAT D 26 Nov 10:36:11 10:40:21 70° 283° (WNW) 10:44:33 437.325/437.525
QB50P1 26 Nov 10:37:13 10:41:14 41° 261° (W) 10:45:16 145.935-145.965
TIGRISAT 26 Nov 10:40:35 10:44:09 26° 263° (W) 10:47:42 435.000
BUGSAT 1 26 Nov 10:46:02 10:50:02 39° 261° (W) 10:54:01 437.445
CINEMA 3 26 Nov 10:51:34 10:53:21 12° 291° (WNW) 10:55:09 145.822/145.860
UNISAT 6 26 Nov 10:55:15 10:58:05 17° 264° (W) 11:00:55 437.425
ZACube-1 26 Nov 10:56:09 10:59:32 23° 288° (WNW) 11:02:59 437.345
ESTCUBE 1 26 Nov 10:57:44 11:02:15 68° 101° (ESE) 11:06:43 437.505/2401.250
VELOX 1 26 Nov 10:58:13 11:02:19 39° 287° (WNW) 11:06:23 145.980
POPSAT HIP 1 26 Nov 11:03:02 11:06:13 20° 264° (W) 11:09:24 437.405
TISAT 1 26 Nov 11:12:27 11:15:30 20° 96° (E) 11:18:33 437.305
SPROUT 26 Nov 11:23:05 11:26:31 23° 97° (E) 11:29:56 437.525
AISAT 26 Nov 11:25:34 11:28:39 19° 290° (WNW) 11:31:44 437.250
CUBEBUG 1 26 Nov 11:36:13 11:40:17 41° 286° (WNW) 11:44:20 437.445
SO-50 26 Nov 11:51:15 11:55:13 24° 55° (NE) 11:59:12 436.795
Oscar 19 26 Nov 11:53:15 11:57:14 24° 69° (ENE) 12:01:14 437.125/150
ITUPSAT 1 26 Nov 12:11:13 12:12:59 12° 93° (E) 12:14:44 437.325
YUBILEINY 26 Nov 12:15:44 12:22:05 22° 72° (ENE) 12:28:23 435.215
SWISSCUBE 26 Nov 12:20:40 12:23:54 18° 95° (E) 12:27:07 437.505
CUSAT 1 26 Nov 12:37:42 12:40:37 75° 278° (W) 12:43:13 437.405
AUBIESAT-1 26 Nov 12:44:25 12:48:57 37° 102° (ESE) 12:53:17 437.475
ITAMSAT 1 26 Nov 12:46:40 12:51:11 31° 71° (ENE) 12:55:42 435.822/435.867
TISAT 1 26 Nov 12:47:51 12:51:15 24° 288° (WNW) 12:54:38 437.305
M-CUBED/EXP-1 PRIME 26 Nov 12:49:47 12:54:33 48° 103° (ESE) 12:59:06 437.505
BEESAT 26 Nov 12:50:38 12:55:03 36° 99° (E) 12:59:26 436.000
SPROUT 26 Nov 12:59:13 13:02:27 21° 289° (WNW) 13:05:39 437.525
PHONESAT 2.4 26 Nov 13:00:29 13:03:57 39° 145° (SE) 13:07:25 2401.200-2431.200
DANDE 26 Nov 13:05:47 13:08:30 29° 278° (W) 13:10:54 436.750
VERMONT LUNAR 26 Nov 13:09:39 13:13:14 73° 149° (SSE) 13:16:50 437.305
Gurwin Techsat 1B 26 Nov 13:21:06 13:25:57 38° 72° (ENE) 13:30:49 435.225
HORYU 2 26 Nov 13:22:31 13:24:27 13° 67° (ENE) 13:26:23 437.375
MaSat-1 26 Nov 13:28:27 13:29:10 11° 107° (ESE) 13:29:52 437.345
SO-50 26 Nov 13:31:26 13:35:45 31° 249° (WSW) 13:40:02 436.795
Oscar 19 26 Nov 13:31:54 13:36:22 30° 262° (W) 13:40:51 437.125/150
ITUPSAT 1 26 Nov 13:46:26 13:51:05 51° 286° (WNW) 13:55:42 437.325
SWISSCUBE 26 Nov 13:57:28 14:01:47 34° 288° (WNW) 14:06:05 437.505
STARS 26 Nov 14:05:01 14:08:52 29° 98° (E) 14:12:42 437.465
YUBILEINY 26 Nov 14:10:49 14:19:21 63° 269° (W) 14:27:50 435.215
AO-7 26 Nov 14:18:17 14:25:21 33° 64° (ENE) 14:32:26 29.400- 29.500
AUBIESAT-1 26 Nov 14:20:07 14:23:34 20° 296° (WNW) 14:26:57 437.475
M-CUBED/EXP-1 PRIME 26 Nov 14:26:11 14:29:05 16° 297° (WNW) 14:31:57 437.505
ITAMSAT 1 26 Nov 14:26:24 14:30:35 24° 263° (W) 14:34:46 435.822/435.867
BEESAT 26 Nov 14:29:26 14:32:34 18° 292° (WNW) 14:35:42 436.000
PHONESAT 2.4 26 Nov 14:39:18 14:42:45 36° 339° (NNW) 14:46:13 2401.200-2431.200
O/OREOS (USA 219) 26 Nov 14:43:49 14:46:13 14° 62° (ENE) 14:48:37 437.305
KKS-1 26 Nov 14:46:22 14:50:40 52° 285° (WNW) 14:54:58 437.445
VERMONT LUNAR 26 Nov 14:48:53 14:51:56 25° 344° (NNW) 14:55:00 437.305
HORYU 2 26 Nov 14:56:29 15:00:41 43° 260° (W) 15:04:55 437.375
MaSat-1 26 Nov 15:01:10 15:03:29 19° 294° (WNW) 15:05:39 437.345
Gurwin Techsat 1B 26 Nov 15:02:06 15:05:56 20° 265° (W) 15:09:47 435.225
